Wind_Speed
51 49 49 42 36 38 41 49 56 57 53 49 57 57 48 36 42 34 21 16 18 18 22 26 32 32 32 17 29 27 23 15 23 22 18 21 19 16 18 15 6 8 6 15
54 50 50 44 38 40 43 48 50 44 50 54 65 56 46 47 45 42 37 24 19 14 12 19 26 35 26 21 21 20 24 19 16 14 19 24 21 23 22 21 19 15 7 13
58 53 52 47 40 43 49 48 44 37 43 65 65 51 45 50 52 44 46 39 24 17 15 11 13 27 26 33 24 22 16 24 24 22 24 16 18 19 19 20 14 16 23 23
61 56 54 50 44 48 56 53 39 51 54 69 70 61 50 47 54 55 45 46 43 30 14 15 12 15 26 24 27 27 26 25 24 22 20 20 21 20 19 21 24 20 23 24
64 57 58 54 45 53 63 52 39 55 49 70 68 45 53 50 51 44 54 51 44 42 31 12 17 10 12 21 23 25 27 24 22 22 24 23 19 21 21 22 22 25 23 26
65 61 59 54 47 64 68 50 53 58 53 48 53 75 54 49 49 57 48 41 44 42 39 21 11 14 17 14 18 22 25 30 27 22 22 19 19 27 27 30 31 32 34 35
65 62 58 55 50 59 57 68 53 57 46 46 62 60 54 49 54 53 49 26 34 37 39 30 27 24 22 22 20 21 25 30 27 17 15 1 28 28 27 27 28 31 35 35
61 62 59 57 50 53 43 72 54 53 48 40 43 44 59 43 51 48 47 42 42 12 22 29 29 28 23 26 23 22 26 28 21 15 19 21 25 22 20 19 21 17 18 15
59 60 58 55 49 52 40 79 55 42 18 58 40 38 43 48 48 46 51 41 22 36 23 20 19 14 18 23 27 27 29 28 29 15 8 8 25 15 20 23 35 28 20 14
60 54 52 53 49 49 41 82 55 48 31 14 49 50 47 44 48 52 47 42 29 29 26 23 27 32 12 22 29 27 29 27 28 25 16 17 20 16 14 17 25 17 17 19
58 50 50 48 48 45 49 78 66 57 39 18 34 42 46 42 41 43 41 33 43 38 34 25 19 21 30 24 26 33 32 30 27 27 19 14 22 21 23 21 20 17 12 11
53 47 48 44 43 45 71 70 45 30 54 22 30 37 36 25 34 44 40 39 36 39 31 30 21 18 24 24 28 31 32 34 33 28 28 27 20 21 16 13 18 17 13 12
45 47 44 41 45 65 78 59 34 43 55 18 24 26 23 31 42 35 26 28 22 31 42 29 28 19 29 25 30 21 26 28 35 27 31 29 27 25 22 18 15 15 16 13
44 42 43 47 48 62 71 51 39 51 56 31 26 27 27 30 36 35 33 23 24 20 22 37 32 30 24 29 27 29 32 30 34 33 33 27 30 26 20 17 16 16 17 16
41 43 41 52 55 61 45 43 35 54 50 19 29 25 27 29 34 43 39 32 25 27 28 30 34 31 30 26 29 36 33 34 36 40 37 32 29 19 14 18 17 16 17 17
38 38 48 52 51 39 37 41 44 58 30 21 22 24 19 19 24 33 31 29 27 31 29 28 28 32 29 22 34 32 28 30 38 30 29 27 31 25 20 19 19 19 20 20
36 41 37 47 44 45 40 35 59 63 45 19 9 14 27 16 20 27 33 32 30 32 29 27 27 33 34 36 41 39 33 31 33 28 29 34 27 24 23 21 21 21 23 24
34 33 33 38 30 53 25 30 39 61 47 31 3 10 17 20 20 20 32 36 33 31 32 32 33 31 32 36 36 27 21 19 23 26 31 29 26 23 21 20 21 23 25 27
34 32 34 31 28 46 28 19 27 40 38 13 5 9 12 24 21 23 26 36 34 29 35 33 28 33 28 33 31 25 24 30 27 25 23 24 26 28 23 20 21 28 29 29
46 44 39 37 31 31 25 15 26 23 24 34 13 17 8 11 17 22 26 28 24 22 27 25 31 35 39 37 34 30 30 29 28 27 23 22 24 26 30 27 22 29 30 28
41 35 31 37 36 31 25 18 17 15 14 31 35 13 17 16 13 20 24 13 16 13 15 19 18 36 20 19 20 23 22 19 22 22 22 24 25 25 29 26 31 35 31 21
33 29 34 34 36 11 7 15 12 10 13 12 17 28 19 19 15 15 18 14 10 8 18 17 13 21 20 20 23 22 24 26 28 29 28 28 27 26 28 28 29 22 19 21
25 44 34 24 17 13 8 11 11 11 18 22 21 24 22 21 16 3 7 8 7 8 14 7 13 14 17 19 21 23 25 28 30 29 27 25 22 24 26 20 19 18 20 23
38 12 10 11 15 15 12 14 12 10 22 20 19 16 17 13 8 4 4 5 5 6 5 7 12 10 13 19 21 21 22 22 22 21 22 23 24 17 16 19 19 20 23 24
15 10 6 6 7 14 17 9 19 13 26 24 22 20 9 15 5 5 3 6 4 3 5 8 9 12 14 16 19 17 16 17 21 20 15 14 13 13 14 19 23 24 22 18
6 7 7 2 13 9 21 13 14 21 27 28 23 9 6 6 6 6 6 7 6 6 7 7 10 9 8 10 12 14 15 13 13 16 18 12 11 16 20 21 20 18 17 16
9 11 12 14 19 18 15 19 20 26 28 22 9 7 6 7 6 8 8 7 6 10 8 8 10 8 9 11 12 11 10 10 11 11 11 14 17 17 16 16 15 15 16 15
Wind_Direction
231 232 234 231 236 205 202 209 213 215 203 193 209 215 219 212 215 211 215 213 209 213 219 217 212 208 210 198 216 223 231 240 237 246 248 254 267 261 269 243 226 218 249 272
227 226 229 223 222 202 195 200 207 209 204 194 212 216 219 219 218 211 223 217 213 208 199 221 223 220 211 214 214 227 229 226 238 240 245 246 251 259 268 248 246 244 228 264
226 225 226 218 214 197 191 188 200 198 203 210 216 207 212 219 215 221 220 224 215 212 201 208 220 223 223 221 220 232 237 235 230 230 247 243 244 253 250 243 247 258 255 280
221 222 224 214 209 195 190 194 202 190 198 204 212 216 210 210 214 221 223 227 222 224 219 196 202 216 227 227 226 234 241 240 235 245 249 250 254 258 260 250 254 256 272 271
215 216 219 211 204 188 193 202 196 195 204 206 207 204 211 215 214 217 223 226 226 222 225 186 205 206 225 226 230 236 239 223 233 243 243 247 241 253 250 259 267 270 272 265
213 213 214 208 198 191 194 194 202 192 206 209 209 212 209 209 214 216 227 231 230 228 223 216 230 254 225 223 233 232 231 224 228 230 231 229 245 249 256 261 260 262 263 272
210 208 210 203 200 202 199 191 196 195 206 202 215 214 205 210 216 222 219 217 227 233 231 236 238 241 235 228 228 235 234 229 225 224 226 210 255 269 271 265 262 261 265 271
205 204 207 200 200 202 201 192 194 197 208 214 213 215 211 212 218 222 225 225 232 249 223 227 238 255 244 235 228 230 233 230 216 215 224 248 262 265 275 275 275 272 268 266
198 199 204 196 196 203 202 195 193 184 209 216 218 214 214 199 213 218 225 217 222 214 227 196 213 226 223 219 225 224 225 227 227 204 212 207 273 268 261 253 269 266 259 259
192 196 196 191 196 203 207 193 189 199 211 205 219 213 208 205 215 222 225 219 197 198 206 219 222 232 240 215 218 214 217 218 219 225 234 249 257 267 261 234 267 281 260 254
186 195 188 190 195 203 200 190 203 203 221 184 187 207 218 217 220 218 222 219 218 215 220 219 213 221 229 233 231 221 222 213 217 222 225 248 253 257 246 279 272 277 260 244
182 189 187 189 200 195 184 185 177 218 211 188 201 205 198 200 223 224 230 231 225 215 217 216 217 221 217 222 224 227 220 226 228 233 239 249 254 270 276 265 262 260 253 253
184 182 184 194 192 184 183 184 176 208 201 196 200 194 198 206 212 224 233 228 212 220 219 217 217 217 222 223 228 228 227 233 235 239 245 248 261 268 268 263 246 243 250 243
174 180 186 185 179 186 188 203 198 201 201 209 195 200 209 212 208 208 214 217 211 205 221 217 221 226 229 230 237 244 243 242 239 241 244 246 263 264 257 249 236 236 245 244
177 180 178 179 180 189 195 196 192 195 197 208 184 194 206 215 214 211 219 220 219 215 221 222 226 233 232 242 247 239 235 241 242 263 260 264 268 263 247 241 238 243 246 246
166 167 175 182 184 189 194 191 188 178 164 170 193 201 203 215 212 210 210 205 209 213 223 232 234 231 232 239 248 250 256 261 252 259 254 263 263 250 246 241 244 249 250 251
160 173 176 185 192 186 184 199 190 185 194 183 167 203 207 199 198 202 205 205 212 218 219 227 237 239 236 239 247 260 256 254 251 257 243 253 249 242 240 242 249 252 253 255
163 168 172 183 190 185 180 190 208 205 205 208 258 164 200 204 200 204 198 199 203 212 225 232 236 240 244 246 251 241 237 239 241 247 247 243 249 246 241 246 252 255 256 258
141 149 150 155 177 183 176 181 198 210 209 211 215 163 179 190 195 207 204 202 208 216 219 219 223 234 235 243 254 244 254 251 250 237 240 243 247 247 244 251 258 255 254 255
143 143 153 158 163 189 190 185 192 209 227 212 236 217 198 171 203 218 204 196 201 214 216 218 234 250 250 254 257 254 254 250 247 231 231 238 248 266 260 264 258 253 250 250
131 135 142 154 162 153 162 158 177 188 205 223 223 226 242 245 238 208 198 172 198 208 213 219 235 248 239 249 238 228 233 232 238 246 235 236 237 247 259 259 258 255 248 251
139 146 155 158 164 159 129 155 173 207 203 209 218 215 230 227 251 200 171 188 166 185 198 201 231 236 245 235 233 232 233 237 242 244 240 238 243 250 255 252 249 248 248 246
140 142 125 163 171 180 158 172 189 200 195 208 211 209 221 230 236 183 135 155 180 157 178 203 226 231 238 247 248 243 240 240 237 238 245 250 251 255 254 240 230 235 248 253
148 126 133 148 164 196 202 204 207 225 183 169 173 206 190 179 166 144 163 158 156 189 213 239 255 248 243 244 244 242 239 242 246 251 250 250 255 256 246 229 237 244 236 232
109 129 164 149 161 186 208 248 234 185 157 164 177 176 169 168 169 179 151 174 182 197 223 241 235 228 230 233 234 237 238 239 244 233 245 263 264 250 234 227 228 226 231 244
86 132 141 140 173 173 203 201 170 162 163 174 172 161 158 164 178 169 170 168 191 206 194 194 180 174 178 188 198 208 218 226 231 241 257 257 239 221 221 226 234 243 243 242
115 124 147 149 144 153 151 157 159 159 165 162 148 171 166 150 170 160 173 188 203 201 192 192 179 181 192 200 212 216 216 223 236 242 233 222 222 225 234 241 241 246 252 260
Height
2912 2922 2930 2939 2948 2958 2966 2973 2982 2993 3009 3016 3015 3012 3022 3032 3041 3048 3049 3051 3053 3055 3058 3060 3064 3066 3073 3076 3080 3083 3086 3088 3087 3089 3091 3091 3093 3095 3096 3096 3097 3096 3096 3094
2897 2908 2917 2928 2935 2946 2956 2963 2973 2983 2997 2998 2997 3007 3015 3024 3036 3039 3042 3046 3049 3051 3054 3058 3060 3064 3070 3073 3075 3078 3082 3082 3085 3085 3088 3086 3088 3090 3091 3090 3090 3090 3093 3090
2883 2894 2904 2916 2925 2937 2948 2958 2965 2974 2980 2988 2992 2999 3005 3013 3026 3032 3037 3040 3046 3048 3050 3053 3057 3060 3064 3068 3071 3075 3077 3077 3078 3080 3081 3083 3084 3084 3085 3086 3086 3085 3083 3085
2868 2881 2891 2903 2915 2926 2939 2944 2947 2955 2958 2969 2977 2989 2994 3003 3014 3022 3030 3033 3039 3045 3047 3049 3054 3056 3060 3063 3066 3069 3072 3072 3074 3075 3077 3078 3079 3080 3080 3079 3080 3079 3080 3079
2852 2867 2876 2890 2906 2919 2927 2930 2938 2950 2953 2964 2972 2980 2982 2990 3009 3013 3018 3026 3034 3040 3042 3047 3051 3054 3057 3058 3061 3063 3066 3067 3070 3072 3072 3073 3074 3076 3076 3075 3075 3074 3074 3073
2838 2853 2866 2880 2895 2906 2909 2923 2933 2942 2948 2953 2961 2957 2973 2985 3006 3006 3014 3024 3031 3033 3040 3047 3049 3051 3052 3054 3056 3058 3060 3062 3065 3066 3068 3069 3071 3070 3071 3070 3068 3068 3066 3067
2825 2841 2855 2870 2881 2887 2900 2913 2924 2933 2938 2946 2945 2961 2972 2980 2992 3003 3012 3021 3025 3029 3037 3040 3045 3047 3047 3048 3050 3053 3055 3057 3061 3062 3064 3067 3062 3064 3064 3062 3061 3061 3060 3061
2814 2831 2845 2860 2873 2883 2894 2910 2917 2927 2935 2944 2950 2955 2966 2982 2992 2997 3006 3014 3023 3028 3030 3035 3041 3040 3041 3041 3045 3047 3050 3053 3055 3056 3059 3058 3057 3057 3059 3057 3055 3055 3054 3055
2807 2824 2838 2855 2867 2877 2889 2904 2914 2922 2931 2931 2945 2955 2960 2970 2981 2994 2996 3010 3016 3023 3027 3029 3032 3034 3035 3037 3039 3041 3045 3048 3051 3051 3052 3053 3051 3053 3053 3054 3045 3049 3050 3051
2802 2819 2834 2850 2861 2871 2881 2897 2908 2917 2924 2931 2940 2944 2951 2967 2979 2984 2993 3001 3011 3015 3018 3022 3023 3027 3028 3028 3031 3035 3038 3041 3043 3045 3045 3045 3047 3048 3049 3051 3045 3043 3044 3047
2801 2816 2831 2844 2856 2866 2873 2891 2905 2914 2921 2926 2932 2942 2949 2962 2972 2975 2985 2997 3002 3007 3010 3013 3016 3018 3023 3024 3026 3027 3032 3036 3037 3040 3040 3041 3042 3043 3043 3042 3040 3040 3041 3042
2802 2815 2829 2841 2851 2859 2872 2884 2902 2913 2918 2925 2931 2938 2947 2956 2965 2976 2982 2986 2990 2997 3004 3007 3011 3012 3013 3017 3020 3023 3026 3028 3031 3034 3033 3035 3036 3036 3035 3035 3036 3037 3038 3039
2804 2816 2828 2837 2847 2858 2870 2885 2901 2910 2917 2925 2929 2937 2946 2953 2960 2969 2975 2979 2986 2990 2996 3002 3006 3006 3011 3011 3014 3018 3019 3022 3024 3027 3028 3029 3030 3031 3030 3031 3032 3032 3034 3035
2807 2818 2828 2837 2848 2860 2873 2885 2898 2905 2914 2924 2930 2935 2940 2947 2954 2961 2969 2977 2982 2987 2991 2996 2999 3001 3004 3007 3010 3012 3014 3016 3018 3019 3021 3023 3024 3024 3025 3026 3027 3028 3029 3031
2810 2820 2829 2841 2853 2866 2878 2887 2895 2904 2921 2922 2927 2931 2937 2941 2948 2955 2963 2970 2976 2981 2987 2989 2993 2994 2998 3002 3004 3003 3007 3008 3011 3011 3015 3017 3019 3020 3019 3021 3022 3023 3024 3025
2814 2824 2834 2845 2856 2868 2879 2891 2900 2905 2913 2922 2926 2929 2935 2938 2944 2953 2960 2966 2971 2976 2980 2983 2985 2988 2994 2995 2997 2999 3001 3002 3004 3006 3008 3011 3013 3014 3014 3015 3017 3017 3018 3019
2821 2830 2839 2851 2861 2873 2887 2895 2899 2899 2911 2921 2926 2928 2932 2936 2941 2947 2952 2960 2966 2971 2975 2977 2979 2982 2985 2987 2988 2991 2993 2996 2998 2999 3002 3004 3006 3006 3007 3009 3009 3010 3013 3013
2827 2837 2847 2858 2867 2883 2890 2897 2899 2903 2910 2921 2923 2926 2931 2935 2938 2943 2948 2954 2960 2964 2967 2971 2973 2976 2978 2977 2983 2986 2987 2989 2990 2991 2994 2997 3001 3002 3002 3003 3003 3005 3006 3006
2834 2843 2854 2866 2873 2884 2891 2899 2902 2908 2917 2918 2919 2924 2929 2933 2936 2940 2943 2949 2955 2959 2961 2965 2970 2969 2967 2971 2979 2980 2984 2985 2985 2988 2989 2991 2994 2996 2996 2997 2997 2999 2999 2999
2844 2850 2862 2871 2878 2890 2897 2902 2908 2912 2914 2920 2920 2924 2927 2932 2935 2938 2941 2943 2950 2953 2956 2960 2961 2959 2963 2967 2970 2975 2978 2978 2979 2980 2983 2985 2986 2989 2989 2990 2990 2991 2991 2990
2854 2860 2868 2877 2885 2891 2897 2902 2906 2909 2913 2914 2917 2921 2925 2930 2934 2935 2938 2937 2944 2948 2950 2955 2954 2950 2958 2963 2965 2968 2969 2970 2971 2973 2975 2977 2980 2981 2981 2981 2981 2980 2980 2982
2860 2865 2874 2880 2889 2889 2891 2896 2903 2904 2909 2909 2911 2918 2923 2927 2930 2931 2928 2936 2938 2940 2945 2949 2946 2950 2953 2955 2958 2959 2962 2964 2965 2967 2969 2971 2973 2974 2974 2974 2974 2974 2974 2976
2865 2870 2876 2884 2887 2890 2891 2894 2901 2901 2899 2903 2909 2916 2921 2925 2927 2920 2922 2931 2936 2939 2940 2941 2943 2946 2949 2950 2951 2953 2955 2957 2959 2962 2964 2966 2967 2968 2968 2969 2969 2969 2971 2971
2871 2873 2877 2883 2885 2888 2890 2893 2894 2896 2899 2904 2910 2915 2919 2921 2924 2925 2927 2928 2932 2934 2935 2935 2938 2940 2942 2943 2945 2947 2950 2953 2956 2958 2960 2961 2962 2961 2963 2963 2964 2965 2965 2965
2870 2876 2877 2879 2881 2885 2888 2890 2893 2897 2900 2907 2911 2916 2920 2922 2925 2926 2926 2929 2930 2932 2934 2934 2934 2936 2938 2940 2943 2946 2949 2951 2953 2953 2955 2956 2956 2957 2958 2959 2960 2960 2961 2963
2872 2874 2877 2878 2883 2886 2888 2891 2893 2897 2901 2906 2912 2915 2919 2921 2923 2924 2926 2929 2930 2931 2930 2931 2933 2934 2937 2940 2943 2945 2946 2948 2949 2951 2951 2952 2953 2954 2955 2956 2957 2959 2959 2960
2875 2877 2880 2882 2884 2888 2891 2894 2897 2900 2905 2908 2912 2915 2917 2919 2921 2923 2925 2927 2928 2929 2930 2932 2933 2936 2938 2940 2942 2943 2945 2946 2947 2947 2949 2949 2951 2952 2954 2955 2956 2956 2956 2956